Weather History for Dickinson, ND

Change the Weather History Date:

Tuesday, October 18, 2011

  Actual Average Record
Temperature  
Mean Temperature 41 °F 43 °F  
Max Temperature 56 °F 56 °F 82 °F (2000)
Min Temperature 26 °F 31 °F 10 °F (1930)
Degree Days  
Heating Degree Days 24 22  
Month to date heating degree days 231 331  
Since 1 July heating degree days 467 685  
Cooling Degree Days 0 0  
Month to date cooling degree days 16 0  
Year to date cooling degree days 358 418  
Moisture  
Dew Point 26 °F    
Average Humidity 57    
Maximum Humidity 81    
Minimum Humidity 32    
Precipitation  
Precipitation 0.00 in 0.04 in 0.45 in (1994)
Month to date precipitation 0.29 0.80  
Year to date precipitation 17.28 14.56  
Sea Level Pressure  
Sea Level Pressure 30.25 in    
Wind  
Wind Speed 10 mph (WNW)    
Max Wind Speed 24 mph    
Max Gust Speed 29 mph    
Visibility 10 miles    
Events      
T = Trace of Precipitation, MM = Missing Value Source: NWS Daily Summary

Daily Weather History Graph

Daily Weather History Graph

Search for Another Location

Airport:

Trip Planner

Search our weather history database for the weather conditions in past years. The results will help you decide how hot, cold, wet, or windy it might be!

Date:

Astronomy

Oct. 18, 2011 Rise Set
Actual Time 7:12 AM MDT 5:59 PM MDT
Civil Twilight 6:42 AM MDT 6:29 PM MDT
Nautical Twilight 6:06 AM MDT 7:04 PM MDT
Astronomical Twilight 5:31 AM MDT 7:39 PM MDT
Moon 10:29 PM MDT (10/18) 1:18 PM MDT (10/18)
Length of Visible Light 11h 47m
Length of Day
10h 46m
Waning Gibbous, 64% of the Moon is Illuminated
Oct 18
Waning Gibbous
Oct 19
Last Quarter
Oct 26
New
Nov 2
First Quarter
Nov 10
Full

Hourly Weather History & Observations

Time (MDT) Temp. Windchill Dew Point Humidity Pressure Visibility Wind Dir Wind Speed Gust Speed Precip Events Conditions
12:56 AM 30.9 °F 24.3 °F 24.1 °F 76% 30.21 in 10.0 mi WNW 6.9 mph - N/A   Clear
1:56 AM 30.0 °F 24.1 °F 24.1 °F 79% 30.22 in 10.0 mi WNW 5.8 mph - N/A   Clear
2:56 AM 28.0 °F 20.8 °F 21.9 °F 78% 30.23 in 10.0 mi West 6.9 mph - N/A   Clear
3:56 AM 30.9 °F 26.2 °F 24.1 °F 76% 30.23 in 10.0 mi West 4.6 mph - N/A   Clear
4:56 AM 28.0 °F 20.8 °F 21.9 °F 78% 30.25 in 10.0 mi West 6.9 mph - N/A   Clear
5:56 AM 27.0 °F 18.0 °F 21.9 °F 81% 30.26 in 10.0 mi West 9.2 mph - N/A   Clear
6:56 AM 28.0 °F 20.0 °F 21.9 °F 78% 30.25 in 10.0 mi West 8.1 mph - N/A   Clear
7:56 AM 32.0 °F 23.6 °F 25.0 °F 75% 30.27 in 10.0 mi West 10.4 mph - N/A   Clear
8:56 AM 39.0 °F 31.0 °F 28.0 °F 65% 30.28 in 10.0 mi WNW 13.8 mph - N/A   Clear
10:56 AM 48.9 °F - 26.1 °F 41% 30.27 in 10.0 mi NW 20.7 mph - N/A   Clear
2:56 PM 53.1 °F - 27.0 °F 37% 30.26 in 10.0 mi NNW 20.7 mph 25.3 mph N/A   Mostly Cloudy
3:56 PM 51.1 °F - 28.0 °F 41% 30.26 in 10.0 mi NW 17.3 mph - N/A   Overcast
4:56 PM 52.0 °F - 28.0 °F 40% 30.27 in 10.0 mi NNW 17.3 mph 23.0 mph N/A   Overcast
5:56 PM 48.9 °F - 28.0 °F 44% 30.28 in 10.0 mi NW 9.2 mph - N/A   Overcast
6:56 PM 46.9 °F - 28.9 °F 50% 30.28 in 10.0 mi North 3.5 mph - N/A   Overcast
7:56 PM 45.0 °F 43.5 °F 28.9 °F 53% 30.27 in 10.0 mi ENE 3.5 mph - N/A   Overcast
8:56 PM 43.0 °F 40.3 °F 28.9 °F 58% 30.26 in 10.0 mi East 4.6 mph - N/A   Overcast
9:56 PM 37.9 °F - 30.0 °F 73% 30.26 in 10.0 mi Calm Calm - N/A   Overcast
10:56 PM 37.0 °F - 28.0 °F 70% 30.24 in 10.0 mi Calm Calm - N/A   Overcast
11:56 PM 33.1 °F 30.0 °F 26.1 °F 75% 30.24 in 10.0 mi South 3.5 mph - N/A   Clear